Powrót do katalogu

BREEZE-M R/B

AktywnyMEO
NORAD 32375·ROCKET BODY·🇷🇺 Russia

Wystrzelony Dec 9, 2007 z Baikonur Cosmodrome

Loading…

Następne Przeloty (najbliższe 24 godziny)

TLE

ŚwieżeSource: Space-Track

Epoka: Sep 14, 2026, 12:17 UTC

1 32375U 07058C   26257.51221531 -.00000211  00000-0  00000-0 0  9997
2 32375  11.4236  24.6041 0251159 220.6341 335.9395  1.04430310 71402

Śledź BREEZE-M R/B w czasie rzeczywistym z AllMySat

Download on the App Store